Location: Betpouey
(42.8833°N, 0.0333°E)
Time: 06:07:08
(UTC+00:00)

Meteor 2-13 Rocket - Pass Details

Date: 25 June 2021
Orbit: 935 x 958 km, 82.5° (Epoch: 26 July)

Event Time Altitude Azimuth Distance (km) Brightness Sun altitude
Exits shadow 22:35:49 16° 101° (ESE) 2,301 6.1 -20.8°
Maximum altitude 22:37:33 18° 81° (E) 2,194 6.2 -20.9°
Drops below altitude 10° 22:41:24 10° 42° (NE) 2,697 7.1 -21.2°
Sets 22:44:45 0° 24° (NNE) 3,646 8.2 -21.4°
